Hourly Weather Roundup
Issued by NWS Central Illinois

Home | Current Version | Previous Version | Text Only | Print | Product List | Glossary On
Versions: 1 2 3 4 5 6 7 8 9 10 11 12 13 14 15 16 17 18 19 20 21 22 23 24 25 26 27 28 29 30 31 32 33 34 35 36 37 38 39 40 41 42 43 44 45 46 47 48 49 50
000
NZUS43 KILX 261710
HWRILX

Area Weather Roundup
National Weather Service Lincoln IL
1200 PM CDT FRI MAY 26 2017

NOTE:  "FAIR" indicates few or no clouds below 12,000 feet, with
       no sigificant weather and/or obstructions to visibility.


CITY           SKY/WX    TMP DP  RH WIND       PRES   REMARKS
Bloomington    CLOUDY    74  61  63 SE16G25   29.81R
Champaign      MOSUNNY   75  62  64 SE18      29.79R
Danville       CLOUDY    70  59  67 SE13      29.79F
Decatur        SUNNY     76  63  64 S16       29.77R
Effingham      CLOUDY    76  66  69 SE9       29.79S
Flora          SUNNY     79  65  61 SE14G21   29.79S HX  81
Galesburg      CLOUDY    70  60  69 S8        29.75F
Jacksonville   SUNNY     72  62  70 SW6       29.77S
Lacon          PTSUNNY   75  59  58 SE14      29.78R
Lawrenceville  MOSUNNY   75  63  66 SE14G24   29.80F
Litchfield     SUNNY     75  64  70 S10G23    29.77R
$$


CITY           SKY/WX    TMP DP  RH WIND       PRES   REMARKS
Lincoln        SUNNY     76  64  65 SW9       29.78R
Macomb         CLOUDY    69  62  77 S10       29.77S
Mattoon        SUNNY     76  64  66 SE16G25   29.77F
Mt Carmel AP   NOT AVBL
Olney-Noble AP MOSUNNY   76  65  69 SE16G23   29.77F
Paris AP       MOSUNNY   74  63  69 SE16      29.82F
Peoria         PTSUNNY   73  61  65 S13G21    29.79R
Pontiac        CLOUDY    73  59  60 SE20      29.80R
Rantoul        CLOUDY    73  63  70 SE17      29.80R
Robinson       SUNNY     74  62  65 SE17      29.80F
Springfield    MOSUNNY   76  65  68 SW8       29.78S
Taylorville    SUNNY     76  64  66 S14       29.77R
$$

...REGIONAL REPORTS...


CITY           SKY/WX    TMP DP  RH WIND       PRES   REMARKS
Chicago O`Hare CLOUDY    68  54  60 E14       29.81F
Kankakee       PTSUNNY   74  56  53 SE13      29.80S
Moline         RAIN      67  57  70 SE13      29.75R
Mount Sterling CLOUDY    76  65  70 SE9       29.74F
Mount Vernon     N/A     79  64  60 S15G23    29.78R HX  81
Pittsfield     CLOUDY    74  65  73 CALM      29.76F
Quincy         CLOUDY    74  66  76 S9        29.74R
Rockford       CLOUDY    69  56  62 SE12      29.81S
$$


CITY           SKY/WX    TMP DP  RH WIND       PRES   REMARKS
Burlington     CLOUDY    66  61  84 CALM      29.76R
Cedar Rapids   RAIN      58  58 100 E9        29.75F FOG
Des Moines     CLOUDY    71  61  70 NW3       29.76R
Kirksville     MOSUNNY   78  64  61 W9        29.74S HX  80
Ottumwa        CLOUDY    64  61  90 SW5       29.76R
St Louis       MOSUNNY   84  64  50 SW14      29.75S HX  85
$$


CITY           SKY/WX    TMP DP  RH WIND       PRES   REMARKS
Terre Haute    MOSUNNY   76  59  55 SE17      29.82F
Evansville     MOSUNNY   78  62  57 SE8       29.86S HX  80
Indianapolis   PTSUNNY   72  57  59 S8        29.85F
Lafayette      CLOUDY    72  59  63 SE10      29.83F
Madison        CLOUDY    68  57  68 SE10      29.80F
Milwaukee      PTSUNNY   60  54  80 E8        29.86F
$$






USA.gov is the U.S. government's official web portal to all federal, state and local government web resources and services.